[[{"header":{"parameterUnit":"m.s-1","parameterCategory":1,"la1":30.2991,"la2":30.254,"lo1":-89.0895,"lo2":-89.0444,"dy":0.0017,"dx":0.0017,"nx":28,"ny":28,"refTime":"2025-11-20T03:00:00:Z","depth":0,"parameterNumber":2,"parameterNumberName":"U-component_of_WINDS"},"data":[0,0,0,0,0,0,0,0,0,0,0,0,0,0,0,0,0,0,0,0,0,0,0,0,0,0,0,0,0,0,0,0,0,0,0,0,0,0,0,0,0,0,0,0,0,0,0,0,0,0,0,0,0,0,0,0,0,0,-2.8523,-2.8523,0,-2.8526,-2.8526,-2.8526,-2.8475,-2.8474,-2.8472,-2.8471,-2.8474,-2.8475,-2.8476,0,0,0,0,0,0,0,0,0,0,0,0,0,-2.8476,-2.8477,-2.8523,-2.8524,-2.8524,-2.8526,-2.8526,-2.8526,-2.8475,-2.8474,-2.8472,-2.8471,-2.8473,-2.8475,-2.8476,0,0,0,0,0,0,0,0,0,0,0,0,0,-2.849,-2.8478,-2.8523,-2.8499,-2.8496,-2.8526,-2.8526,-2.8526,-2.8476,-2.8474,-2.8472,-2.847,-2.8473,-2.8474,-2.8476,-2.8529,0,0,-2.8483,-2.8483,0,0,0,0,0,0,0,0,-2.8489,-2.8491,-2.8502,-2.85,-2.8498,-2.8498,-2.851,-2.8527,-2.8476,-2.8484,-2.8471,-2.8469,-2.8483,-2.8484,-2.8489,-2.853,-2.853,-2.8483,-2.8484,-2.8485,-2.8485,0,0,0,0,0,0,0,-2.8488,-2.8491,-2.8524,-2.8503,-2.85,-2.8488,-2.8487,-2.8513,-2.8495,-2.8483,-2.8479,-2.848,-2.8482,-2.8487,-2.8489,-2.853,-2.8483,-2.8484,-2.8486,-2.8486,-2.8614,-2.8616,0,0,0,0,0,0,-2.849,-2.8491,-2.8524,-2.8524,-2.8488,-2.849,-2.849,-2.85,-2.8494,-2.8492,-2.8482,-2.8478,-2.8485,-2.8487,-2.8489,-2.855,-2.8485,-2.8487,-2.8488,-2.8612,-2.8614,-2.8617,0,0,0,0,0,0,-2.849,-2.8494,-2.8524,-2.8506,-2.8509,-2.8493,-2.8505,-2.8501,-2.8507,-2.8494,-2.849,-2.8491,-2.8483,-2.8486,-2.852,-2.8549,-2.8488,-2.8489,-2.8609,-2.8612,-2.8615,-2.8673,0,0,0,0,0,0,-2.8488,-2.8494,-2.8514,-2.8507,-2.8511,-2.8555,-2.8507,-2.8503,-2.851,-2.8505,-2.8501,-2.8499,-2.8482,-2.8517,-2.8522,-2.8551,-2.8491,-2.8606,-2.8611,-2.8614,-2.8668,-2.8678,-2.8686,0,0,0,0,0,-2.8487,-2.853,-2.8515,-2.8519,-2.8535,-2.8557,-2.8559,-2.8539,-2.8513,-2.8533,-2.8524,-2.8499,-2.8546,-2.8521,-2.8526,-2.8556,-2.8604,-2.8609,-2.8614,-2.8664,-2.8676,-2.8686,0,0,0,0,0,0,-2.8539,-2.8528,-2.8512,-2.8554,-2.8557,-2.8548,-2.8572,-2.8551,-2.8562,-2.8556,-2.8531,-2.8531,-2.8569,-2.8566,-2.8538,-2.8607,-2.857,-2.8577,-2.8607,-2.8618,-2.8627,-2.8626,-2.8493,0,0,0,0,0,-2.8556,-2.8575,-2.8564,-2.8602,-2.8605,-2.8589,-2.8597,-2.8582,-2.8584,-2.8585,-2.8579,-2.8582,-2.8597,-2.8608,-2.8621,-2.8669,-2.8667,-2.8692,-2.8701,-2.8708,-2.8713,-2.8738,-2.8748,-2.8633,-2.8633,-2.8633,0,0,-2.859,-2.8586,-2.86,-2.8613,-2.8613,-2.8633,-2.859,-2.8612,-2.8627,-2.8588,-2.8619,-2.8616,-2.8617,-2.8658,-2.8676,-2.8657,-2.8745,-2.8714,-2.872,-2.8721,-2.8744,-2.8755,-2.8764,-2.8636,-2.8636,-2.8635,0,0,-2.8662,-2.8662,-2.8693,-2.8695,-2.8696,-2.8685,-2.8693,-2.8688,-2.8684,-2.8715,-2.8686,-2.8704,-2.8731,-2.8733,-2.8738,-2.8813,-2.8789,-2.8818,-2.8863,-2.8888,-2.8897,-2.8905,-2.893,-2.894,-2.8824,-2.8824,-2.8824,0,-2.8704,-2.8733,-2.8712,-2.8737,-2.8743,-2.871,-2.8741,-2.8744,-2.875,-2.8755,-2.8734,-2.8768,-2.8767,-2.8807,-2.8826,-2.8831,-2.8839,-2.8817,-2.8897,-2.8905,-2.8912,-2.8936,-2.8946,-2.8827,-2.8827,-2.8826,-2.8826,0,-2.8784,-2.8805,-2.883,-2.8836,-2.8846,-2.8874,-2.8858,-2.887,-2.8855,-2.8846,-2.8879,-2.8877,-2.8889,-2.8898,-2.8883,-2.8937,-2.8925,-2.8901,-2.8864,-2.8927,-2.8949,-2.8958,-2.8832,-2.8831,-2.883,-2.8829,0,0,-2.8887,-2.8883,-2.8892,-2.8895,-2.8894,-2.891,-2.8937,-2.8949,-2.896,-2.8966,-2.8988,-2.9013,-2.8991,-2.8996,-2.8982,-2.9003,-2.9062,-2.8977,-2.8976,-2.8991,-2.912,-2.9137,-2.9148,-2.9047,-2.9049,-2.905,-2.912,0,-2.8956,-2.9001,-2.8984,-2.9031,-2.9049,-2.9019,-2.9042,-2.9045,-2.9039,-2.9054,-2.9046,-2.9064,-2.9034,-2.9037,-2.9058,-2.905,-2.9087,-2.9045,-2.9067,-2.9068,-2.9065,-2.916,-2.9177,-2.9243,-2.9129,-2.913,-2.9131,0,-2.9042,-2.9051,-2.91,-2.9097,-2.9104,-2.9125,-2.9135,-2.915,-2.9153,-2.9147,-2.9154,-2.9135,-2.9162,-2.9126,-2.9162,-2.9134,-2.9142,-2.9141,-2.9143,-2.9142,-2.9102,-2.9161,-2.9264,-2.9273,-2.9145,-2.9144,-2.9143,0,-2.911,-2.9135,-2.9168,-2.9171,-2.9169,-2.9184,-2.9184,-2.9185,-2.9194,-2.9203,-2.9208,-2.9221,-2.9228,-2.9238,-2.9223,-2.9198,-2.9261,-2.9224,-2.9256,-2.9257,-2.9269,-2.9268,-2.9373,-2.9278,-2.9277,-2.9277,-2.9277,0,-2.9188,-2.9219,-2.9198,-2.9218,-2.9252,-2.9232,-2.9266,-2.9263,-2.9264,-2.9283,-2.9258,-2.9276,-2.9256,-2.9272,-2.9261,-2.9292,-2.9296,-2.9291,-2.9288,-2.9292,-2.9293,-2.9296,-2.929,-2.928,-2.9279,-2.9279,-2.9278,0,-2.9269,-2.9257,-2.929,-2.9286,-2.9285,-2.931,-2.9306,-2.9325,-2.9317,-2.9341,-2.9346,-2.9334,-2.9352,-2.9339,-2.9357,-2.9349,-2.939,-2.9381,-2.9389,-2.9386,-2.9418,-2.9415,-2.9527,-2.954,-2.9438,-2.9439,-2.944,0,-2.9319,-2.9342,-2.934,-2.9351,-2.9352,-2.937,-2.9379,-2.9361,-2.9371,-2.9377,-2.9395,-2.9411,-2.9422,-2.9453,-2.9446,-2.9459,-2.9449,-2.9488,-2.9451,-2.9455,-2.9448,-2.9446,-2.9448,-2.9495,-2.9496,-2.9497,-2.9498,0,-2.9407,-2.9401,-2.9414,-2.9426,-2.9438,-2.9446,-2.9453,-2.9463,-2.9446,-2.9459,-2.9477,-2.9486,-2.9505,-2.9521,-2.9532,-2.9532,-2.9512,-2.951,-2.9518,-2.9522,-2.9525,-2.9523,-2.9407,-2.9507,-2.9506,-2.9505,-2.9505,-2.9504,-2.9473,-2.9492,-2.9494,-2.951,-2.9514,-2.9521,-2.9537,-2.9533,-2.9547,-2.9561,-2.955,-2.9572,-2.9575,-2.9588,-2.9591,-2.9608,-2.9592,-2.9604,-2.9606,-2.9609,-2.9613,-2.9524,-2.961,-2.961,-2.961,-2.9609,-2.9609,0,-2.9559,-2.956,-2.9575,-2.9585,-2.9598,-2.9579,-2.9586,-2.9598,-2.9617,-2.9622,-2.9634,-2.9655,-2.9671,-2.9666,-2.968,-2.9695,-2.9686,-2.9699,-2.9697,-2.9697,-2.9627,-2.9618,-2.9706,-2.9706,-2.9706,-2.9706,-2.9706,-2.9706,-2.9606,-2.9636,-2.963,-2.9663,-2.9662,-2.9683,-2.9689,-2.9695,-2.9699,-2.9724,-2.9737,-2.9734,-2.9734,-2.9749,-2.9763,-2.9761,-2.9767,-2.9783,-2.9778,-2.9712,-2.9702,-2.9693,-2.9684,-2.9785,-2.9785,-2.9846,-2.9846,-2.9847]},{"header":{"parameterUnit":"m.s-1","parameterCategory":1,"la1":30.2991,"la2":30.254,"lo1":-89.0895,"lo2":-89.0444,"dy":0.0017,"dx":0.0017,"nx":28,"ny":28,"refTime":"2025-11-20T03:00:00:Z","depth":0,"parameterNumber":3,"parameterNumberName":"V-component_of_WINDS"},"data":[0,0,0,0,0,0,0,0,0,0,0,0,0,0,0,0,0,0,0,0,0,0,0,0,0,0,0,0,0,0,0,0,0,0,0,0,0,0,0,0,0,0,0,0,0,0,0,0,0,0,0,0,0,0,0,0,0,0,1.3106,1.3106,0,1.3103,1.3103,1.3103,1.3083,1.3083,1.3083,1.3082,1.3079,1.3079,1.308,0,0,0,0,0,0,0,0,0,0,0,0,0,1.3098,1.3098,1.3106,1.3106,1.3106,1.3103,1.3103,1.3103,1.3084,1.3083,1.3082,1.3082,1.3079,1.3079,1.308,0,0,0,0,0,0,0,0,0,0,0,0,0,1.3099,1.3098,1.3106,1.3096,1.3095,1.3103,1.3103,1.3103,1.3084,1.3083,1.3082,1.3082,1.3079,1.3079,1.308,1.3098,0,0,1.3082,1.3082,0,0,0,0,0,0,0,0,1.3099,1.3099,1.3098,1.3097,1.3096,1.3093,1.3099,1.3101,1.3084,1.3088,1.3082,1.3081,1.3084,1.3084,1.3085,1.3097,1.3097,1.3082,1.3082,1.3082,1.3082,0,0,0,0,0,0,0,1.3099,1.3099,1.3105,1.3098,1.3097,1.3093,1.3092,1.3099,1.309,1.3088,1.3086,1.3086,1.3084,1.3085,1.3085,1.3097,1.3082,1.3082,1.3082,1.3083,1.3128,1.3128,0,0,0,0,0,0,1.31,1.3099,1.3105,1.3105,1.3096,1.3093,1.3093,1.3095,1.309,1.3089,1.3087,1.3085,1.3084,1.3085,1.3085,1.3108,1.3082,1.3083,1.3083,1.3127,1.3128,1.3129,0,0,0,0,0,0,1.31,1.3101,1.3105,1.3102,1.3102,1.3094,1.3097,1.3095,1.3096,1.3089,1.3088,1.3089,1.3084,1.3084,1.3095,1.3107,1.3083,1.3083,1.3126,1.3127,1.3128,1.3152,0,0,0,0,0,0,1.31,1.3101,1.3106,1.3102,1.3102,1.3115,1.3097,1.3095,1.3097,1.3095,1.3092,1.309,1.3083,1.3095,1.3096,1.3107,1.3084,1.3125,1.3126,1.3128,1.315,1.3154,1.3157,0,0,0,0,0,1.3099,1.3112,1.3107,1.3108,1.3109,1.3115,1.3116,1.3107,1.3098,1.3104,1.3101,1.309,1.3106,1.3096,1.3097,1.3109,1.3124,1.3126,1.3128,1.3148,1.3153,1.3157,0,0,0,0,0,0,1.3117,1.3111,1.3105,1.3117,1.3117,1.3112,1.312,1.3112,1.3114,1.3112,1.3102,1.3102,1.3115,1.3113,1.3102,1.3128,1.3113,1.3116,1.3128,1.3133,1.3136,1.3137,1.3084,0,0,0,0,0,1.3123,1.3128,1.3123,1.3134,1.3134,1.3127,1.3129,1.3123,1.3123,1.3123,1.312,1.312,1.3126,1.3129,1.3133,1.315,1.315,1.3159,1.3162,1.3165,1.3167,1.3179,1.3184,1.3135,1.3135,1.3135,0,0,1.3133,1.3131,1.3135,1.3137,1.3136,1.3143,1.3127,1.3134,1.314,1.3124,1.3135,1.3133,1.3133,1.3148,1.3154,1.3147,1.3181,1.3168,1.317,1.3171,1.3182,1.3186,1.3191,1.3136,1.3136,1.3136,0,0,1.3157,1.3155,1.3165,1.3166,1.3166,1.3161,1.3164,1.3161,1.316,1.3171,1.316,1.3167,1.3176,1.3177,1.3179,1.3208,1.3199,1.3209,1.3228,1.3239,1.3243,1.3247,1.3259,1.3263,1.3211,1.3212,1.3212,0,1.3171,1.318,1.3171,1.318,1.3183,1.317,1.3182,1.3183,1.3184,1.3186,1.3178,1.3191,1.319,1.3206,1.3214,1.3215,1.3219,1.3209,1.3243,1.3246,1.325,1.3261,1.3266,1.3213,1.3213,1.3213,1.3212,0,1.3198,1.3205,1.3213,1.3216,1.3219,1.3229,1.3224,1.3229,1.3224,1.3221,1.3234,1.3233,1.3238,1.3242,1.3236,1.3259,1.3254,1.3245,1.323,1.3256,1.3267,1.3271,1.3215,1.3214,1.3214,1.3214,0,0,1.323,1.3231,1.3234,1.3237,1.3237,1.3243,1.3254,1.326,1.3265,1.3267,1.3277,1.3287,1.3279,1.3281,1.3276,1.3286,1.3312,1.3276,1.3276,1.3284,1.334,1.3348,1.3353,1.3307,1.3308,1.3308,1.3341,0,1.3254,1.3272,1.3266,1.3285,1.3293,1.3283,1.3293,1.3296,1.3294,1.3302,1.33,1.3308,1.3296,1.3298,1.3308,1.3307,1.3323,1.3304,1.3317,1.3318,1.3318,1.3358,1.3366,1.3396,1.3345,1.3345,1.3346,0,1.3283,1.3288,1.3308,1.3311,1.3314,1.3323,1.333,1.3336,1.334,1.3339,1.3343,1.3337,1.335,1.3336,1.3354,1.3341,1.3347,1.3348,1.3349,1.335,1.3334,1.3362,1.3406,1.3411,1.3352,1.3352,1.3351,0,1.3307,1.3319,1.3333,1.3335,1.3338,1.3345,1.3347,1.335,1.3355,1.3361,1.3365,1.3373,1.3377,1.3384,1.3381,1.337,1.3401,1.3386,1.3402,1.3402,1.3408,1.3408,1.3455,1.3411,1.341,1.341,1.341,0,1.3334,1.3347,1.3344,1.3353,1.3368,1.3363,1.3379,1.3379,1.3383,1.3393,1.3385,1.3395,1.3389,1.3399,1.3397,1.3415,1.3416,1.3417,1.3416,1.3418,1.3418,1.3421,1.3419,1.3412,1.3411,1.3411,1.3411,0,1.3363,1.3361,1.3376,1.3379,1.338,1.3392,1.3395,1.3404,1.3403,1.3416,1.3419,1.3419,1.343,1.3428,1.344,1.3439,1.3462,1.3458,1.346,1.346,1.3477,1.3476,1.3528,1.3535,1.3485,1.3486,1.3486,0,1.3381,1.3391,1.3396,1.3402,1.3405,1.3415,1.3421,1.3417,1.3424,1.3432,1.344,1.3452,1.346,1.348,1.3481,1.3492,1.3489,1.3507,1.349,1.3493,1.3491,1.3491,1.3493,1.351,1.351,1.3511,1.3511,0,1.3413,1.3413,1.3421,1.3431,1.3439,1.3446,1.3452,1.3459,1.3456,1.3464,1.3477,1.3484,1.3498,1.351,1.3521,1.3524,1.3518,1.3517,1.3521,1.3523,1.3525,1.3526,1.347,1.3515,1.3515,1.3515,1.3514,1.3514,1.3438,1.3448,1.3454,1.3465,1.347,1.3477,1.3487,1.3489,1.3499,1.3511,1.3508,1.3523,1.353,1.3544,1.3549,1.3561,1.3555,1.3561,1.3563,1.3564,1.3567,1.3523,1.3563,1.3563,1.3563,1.3563,1.3563,0,1.3471,1.3476,1.3486,1.3497,1.3506,1.3501,1.3509,1.3517,1.353,1.3537,1.3547,1.3563,1.3576,1.358,1.3592,1.3602,1.36,1.3606,1.3605,1.3607,1.3571,1.3567,1.3607,1.3607,1.3607,1.3607,1.3607,1.3607,1.349,1.3507,1.3508,1.3529,1.3533,1.3548,1.3554,1.3561,1.3567,1.3586,1.3597,1.36,1.3606,1.362,1.3632,1.3633,1.3639,1.3646,1.3646,1.3613,1.3609,1.3604,1.36,1.3647,1.3647,1.3681,1.3681,1.3681]}]]